The Dalles, WA

5:05 AM PDT on September 26, 2017 (GMT -0700)
Columbia Gorge Regional-The Dalles

Weather History for KDLS - August, 2013

Change the Weather History Date:

Thursday, August 22, 2013

  Actual Average Record
Temperature  
Mean Temperature 70 °F -  
Max Temperature 82 °F 86 °F 99 °F (1964)
Min Temperature 59 °F 58 °F 44 °F (1960)
Cooling Degree Days 5    
Growing Degree Days 20 (Base 50)    
Moisture  
Dew Point 50 °F    
Average Humidity 45    
Maximum Humidity 64    
Minimum Humidity 32    
Precipitation  
Precipitation 0.00 in - - ()
Sea Level Pressure  
Sea Level Pressure 29.85 in    
Wind  
Wind Speed 4 mph (NW)    
Max Wind Speed 20 mph    
Max Gust Speed 18 mph    
Visibility 9 miles    
Events Thunderstorm    
Averages and records for this station are not official NWS values.
T = Trace of Precipitation, MM = Missing Value Source: NWS Daily Summary

Daily Weather History Graph

Daily Weather History Graph

Search for Another Location

Airport or City:

Trip Planner

Search our weather history database for the weather conditions in past years. The results will help you decide how hot, cold, wet, or windy it might be!

Date:

Astronomy

Aug. 22, 2013 Rise Set
Actual Time 6:14 AM PDT 7:59 PM PDT
Civil Twilight 5:42 AM PDT 8:31 PM PDT
Nautical Twilight 5:03 AM PDT 9:09 PM PDT
Astronomical Twilight 4:21 AM PDT 9:51 PM PDT
Moon 8:36 PM PDT (8/22) 8:17 AM PDT (8/22)
Length of Visible Light 14h 48m
Length of Day
13h 45m
Waning Gibbous, 96% of the Moon is Illuminated
Aug 22
Waning Gibbous
Aug 28
Last Quarter
Sep 5
New
Sep 12
First Quarter
Sep 19
Full

Hourly Weather History & Observations

Time (PDT) Temp. Heat Index Dew Point Humidity Pressure Visibility Wind Dir Wind Speed Gust Speed Precip Events Conditions
12:53 AM 66.0 °F - 48.0 °F 52% 29.88 in 10.0 mi Calm Calm - N/A   Clear
1:53 AM 66.0 °F - 48.9 °F 54% 29.89 in 10.0 mi Calm Calm - N/A   Clear
2:53 AM 63.0 °F - 43.0 °F 48% 29.89 in 10.0 mi Calm Calm - N/A   Clear
3:53 AM 61.0 °F - 46.9 °F 60% 29.89 in 10.0 mi Calm Calm - N/A   Clear
4:53 AM 60.1 °F - 43.0 °F 53% 29.88 in 10.0 mi East 4.6 mph - N/A   Clear
5:53 AM 59.0 °F - 42.1 °F 53% 29.89 in 10.0 mi ESE 3.5 mph - N/A   Clear
6:53 AM 60.1 °F - 48.0 °F 64% 29.89 in 5.0 mi SE 3.5 mph - N/A   Haze
7:53 AM 63.0 °F - 48.0 °F 58% 29.90 in 10.0 mi Calm Calm - N/A   Clear
8:53 AM 68.0 °F - 46.9 °F 47% 29.90 in 8.0 mi Variable 3.5 mph - N/A   Clear
9:53 AM 72.0 °F - 46.9 °F 41% 29.88 in 9.0 mi WNW 3.5 mph - N/A   Clear
10:53 AM 73.9 °F - 46.9 °F 38% 29.88 in 10.0 mi Calm Calm - N/A   Clear
11:53 AM 73.9 °F - 48.0 °F 40% 29.87 in 10.0 mi West 3.5 mph - N/A   Clear
12:42 PM 77.0 °F - 46.4 °F 34% 29.86 in 4.0 mi NNW 5.8 mph - N/A Thunderstorm Haze
12:53 PM 78.1 °F - 46.9 °F 33% 29.86 in 6.0 mi Calm Calm - N/A Thunderstorm Haze
1:07 PM 78.8 °F - 46.4 °F 32% 29.85 in 8.0 mi Calm Calm - N/A   Clear
1:53 PM 78.1 °F - 48.0 °F 35% 29.83 in 4.0 mi NNW 5.8 mph - N/A   Haze
2:53 PM 80.1 °F - 52.0 °F 38% 29.82 in 9.0 mi NNW 11.5 mph - N/A   Clear
3:53 PM 80.1 °F 80.0 °F 54.0 °F 40% 29.81 in 10.0 mi NNW 19.6 mph - N/A   Clear
4:53 PM 81.0 °F 80.5 °F 54.0 °F 39% 29.79 in 10.0 mi NNW 16.1 mph - N/A   Clear
5:53 PM 81.0 °F 80.4 °F 53.1 °F 38% 29.80 in 10.0 mi NW 12.7 mph - N/A   Clear
6:53 PM 81.0 °F 80.5 °F 54.0 °F 39% 29.79 in 10.0 mi NW 10.4 mph - N/A   Partly Cloudy
7:53 PM 80.1 °F 80.1 °F 55.0 °F 42% 29.79 in 10.0 mi NW 11.5 mph 16.1 mph N/A   Clear
8:53 PM 79.0 °F - 55.9 °F 45% 29.79 in 10.0 mi NW 10.4 mph - N/A   Clear
9:53 PM 78.1 °F - 57.0 °F 48% 29.80 in 10.0 mi Calm Calm - N/A   Clear
10:53 PM 77.0 °F - 57.0 °F 50% 29.80 in 10.0 mi NW 9.2 mph - N/A   Mostly Cloudy
11:53 PM 77.0 °F - 57.0 °F 50% 29.81 in 10.0 mi NW 13.8 mph 18.4 mph N/A   Overcast